Regional Weather Roundup
Issued by NWS Upton, NY

Current Version | Previous Version | Text Only | Print | Product List | Glossary On
Versions: 1 2 3 4 5 6 7 8 9 10 11 12 13 14 15 16 17 18 19 20 21 22 23 24 25 26 27 28
000
ASUS41 KOKX 260004
RWROKX

REGIONAL WEATHER ROUNDUP
NATIONAL WEATHER SERVICE NEW YORK NY
800 PM EDT MON JUL 25 2016

NOTE: "FAIR" INDICATES FEW OR NO CLOUDS BELOW 12,000 FEET WITH NO
SIGNIFICANT WEATHER AND/OR OBSTRUCTIONS TO VISIBILITY.

NYZ071-072-176-178-NJZ106-104-260100-
NEW YORK CITY METRO AREA

CITY           SKY/WX    TMP DP  RH WIND       PRES   REMARKS
Central Park   LGT RAIN  75  73  93 CALM      29.91F FOG
LaGuardia APRT CLOUDY    78  71  79 N3        29.87F
Kennedy INTL   CLOUDY    76  73  91 NW6       29.90R
Newark/Liberty LGT RAIN  77  74  90 VRB3      29.87F FOG
Bronx Bot Gard   N/A     73  70  88 E2        29.89S
Wall St Helipt CLOUDY    75  73  94 W6        29.88F
Teterboro      CLOUDY    75  70  84 E5        29.86F
$$

NYZ177-179-078>081-260100-
LONG ISLAND NEW YORK

CITY           SKY/WX    TMP DP  RH WIND       PRES   REMARKS
Farmingdale    CLOUDY    76  71  85 N10G21    29.90R
MacArthur/ISP  TSTM      75  73  93 W9        29.90R
Shirley        LGT RAIN  76  74  93 W7        29.90R FOG
Riverhead      NOT AVBL
Westhampton    RAIN      77  74  90 W12       29.89R
Southhampton     N/A     75  73  94 NW3       29.84R
Bridgehampton    N/A     75  73  94 CALM      29.86S
East Hampton   LGT RAIN  75  73  94 SW5       29.87R
Montauk          N/A     75  73  93 SW7       29.87R
$$

NYZ052-065-067-260100-
HUDSON VALLEY

CITY           SKY/WX    TMP DP  RH WIND       PRES   REMARKS
White Plains   LGT RAIN  72  70  93 S5        29.88F
Newburgh       MOCLDY    73  72  94 W7        29.85F
Montgomery     HVY RAIN  73  71  93 W6        29.85F
Poughkeepsie   CLOUDY    77  73  87 SW6       29.81F
Albany         MOCLDY    79  73  82 SW7       29.79R
$$

NJZ001-105-106-008-010-013-015-019>022-104-260100-
NEW JERSEY

CITY           SKY/WX    TMP DP  RH WIND       PRES   REMARKS
Newark/Liberty LGT RAIN  77  74  90 VRB3      29.87F FOG
Teterboro      CLOUDY    75  70  84 E5        29.86F
Caldwell       LGT RAIN  75  72  90 S6        29.86F
Morristown     CLOUDY    73  72  94 S3        29.88F FOG
Somerville     CLOUDY    74  73  97 SW5       29.86F
Linden         TSTM      75  73  93 CALM      29.90F
Sussex         LGT RAIN  72  71  97 VRB3      29.87F
Abdover          N/A     72  70  93 CALM      29.89F
Trenton        LGT RAIN  75  73  93 W6        29.92R
Millville      PTCLDY    88  73  61 CALM      29.87R HX  95
Atlantic City  CLOUDY    91  75  59 SW8       29.85R HX 101
Wrightstown    TSTM      73  72  94 N9G23     29.91R FOG
Toms River     TSTM      73  73 100 N12G24    29.93R FOG
Belmar         TSTM      74  72  93 NE3       29.94R
$$

PAZ047>061-062-071-260100-
EASTERN PENNSYLVANIA

CITY           SKY/WX    TMP DP  RH WIND       PRES   REMARKS
Philadelphia   TSTM      75  72  90 NE18      29.93R FOG
Allentown      LGT RAIN  73  70  90 S6        29.90S
Scranton       CLOUDY    73  72  96 SW7       29.90R
$$

CTZ002-004>006-009-010-012-RIZ004-006-007-MAZ004-011-015-260100-
SOUTHERN NEW ENGLAND
 IN CT

CITY           SKY/WX    TMP DP  RH WIND       PRES   REMARKS
Bradley INTL   LGT RAIN  80  70  71 S12       29.80S
Hartford       LGT RAIN  81  72  74 SW8       29.83R
Danbury        RAIN      73  71  93 SE14      29.86F
Wtrbury/Oxford NOT AVBL
Bridgeport     RAIN      73  69  87 N18G24    29.85F FOG
Meriden        LGT RAIN  77  72  84 SW5       29.86R
New Haven      TSTM      76  73  91 VRB5      29.90R
Chester        LGT RAIN  75  72  88 W9        29.89R
Groton         CLOUDY    76  73  91 SW5       29.86R
Wilimantic     NOT AVBL

 IN RI

CITY           SKY/WX    TMP DP  RH WIND       PRES   REMARKS
Providence     CLOUDY    77  70  79 SW8       29.84R
Block Island   CLOUDY    74  72  93 SW14      29.87
Westerly       CLOUDY    76  70  82 W7        29.87R
 IN MA

CITY           SKY/WX    TMP DP  RH WIND       PRES   REMARKS
Boston         MOCLDY    80  66  62 S14       29.78S
Worchester     CLOUDY    80  68  66 S12       29.82F
Westfield      LGT RAIN  83  69  62 S14       29.79F
Provincetown   MOCLDY    74  69  85 S12       29.82R
Nantucket      PTCLDY    72  71  97 S12       29.85S
$$

ANZ330-335-338-340-345-350-353-355-260100-
COASTAL MARINE OBSERVATIONS


STATION/POSITION TIME  SKY/WX   TEMP    WIND        PRES    VSBY  WAVE
                                AIR SEA DIR/SP/G                  HT/PER
                 (UTC)          (F)     (DEG/KT/KT) (MB)    (MI)  (FT/S)
NY HARB ENTRANCE 2250            72 73   30/ 16/ 23 1011.9          3/ 3
20S FIRE ISLAND  2250            77 75  200/  6/ 10 1010.9          3/ 5
GREAT SOUTH BAY  2315            77 81  250/  6/ 12   N/A
23 SSW MONTAUK P 2250            75 74  210/ 12/ 14 1010.8          3/ 5
15 E BARNEGAT LI 2322               75                N/A           2/ 3
HUDSON CANYON    2250            79 78              1011.3          2/ 5
KINGS POINT      2300            75 74                N/A
EXECUTION ROCKS  2300            74     180/ 12/ 17   N/A
CENTRAL LI SOUND 2300            77 76  230/ 12/ 16   N/A           1/ 2
EASTERN LI SOUND 2300            72 68  210/ 10/ 12   N/A
ROBBINS REEF     2318                   340/  2/  4 1012.1
$$


>>>>>>>>>>>>>>>>>>>>>>>>>>>> KEY <<<<<<<<<<<<<<<<<<<<<<<<<<<
>                                                          <
>     SKY/WX - Sky Condition/Present Weather               <
>     TMP    - Temperature in Fahrenheit                   <
>     DP     - Dew Point in Fahrenheit                     <
>     RH     - Relative Humidity in Percent                <
>     WIND   - Direction (from) and Speed in MPH           <
>     PRES   - Mean Sea Level Pressure (inches of Hg)      <
>     WCI    - Wind Chill Index                            <
>     VSB    - VISIBILITY IN MILES                         <
>     HX     - HEAT INDEX                                  <
>     TC     - TEMPERATURE IN CELSIUS                      <
>     VRB    - VARIABLE WIND DIRECTION                     <
>                                                          <
>>>>>>>>>>>>>>>>>>>>>>>>>>>> KEY <<<<<<<<<<<<<<<<<<<<<<<<<<<




USA.gov is the U.S. government's official web portal to all federal, state and local government web resources and services.